STARLINK-2428 (48099 NORAD) Tracking and Keplerian Element Data

This shows tracking and keplerian element data for the satellite.

Feedback or suggestion? Click here.




ElementValue
Catalog48099
NameSTARLINK-2428
Epoch Orbit194
Epoch Day173.91668981
Epoch Year2021
RAAN336.4988
Inclination53.0439
Eccentricity0.0001469
Argument of Perigee104.9316
Mean Anonmoly236.9187
Mean Motion15.0645089
Decay Rate-0.00090681
L11 48099U 21027H 21173.91668981 -.00090681 00000-0 -61384-2 0 9994
L22 48099 53.0439 336.4988 0001469 104.9316 236.9187 15.06450890 1949

Live tracking and technical data element details for STARLINK-2428 (NORAD 48099). STARLINK-2428 can be tracked NOW for your location showing map with azimuth and elevation plus other details from your city location.

Track the satellite on the map from your city or location and see movement details for azimuth, elevation, latitude, longitude, range, height, and movement on the map or in text.







IsCatalogInMostPopularTable: catalog: 48099, numindb: 38
Update: records affected: 1



GetName: 48099 STARLINK-2428

Hit Count: updated at: Thu, 24 Jun 2021 03:23:08 GMT